User: anonymous   Login
Location: Montague
(41.3030°N, 74.7940°W)
Time: 16:21:37
(UTC-05:00)
Language:

Cosmos 1461 - Orbit

View from above orbital plane
View from above orbital plane
View from above satellite
View from above satellite

Ground track
Ground track

The orbit data is extracted from the following two-line orbital elements,

1 14064U 83044A   14330.17078693  .00006258  00000-0  61209-3 0  6951
2 14064 065.0053 289.0582 0096406 047.9629 312.9639 14.89699606583975
Epoch (UTC): 26 November 2014 04:05:55
Eccentricity: 0.0096406
inclination: 65.0053°
perigee height: 531 km
apogee height: 666 km
right ascension of ascending node: 289.0582°
argument of perigee: 47.9629°
revolutions per day: 14.89699606
mean anomaly at epoch: 312.9639°
orbit number at epoch: 58397

The dashed part of the orbit path shows where the satellite is in the earth's shadow,  

DLR